User: anonymous   Login
Location: Arran
(51.9410°N, 101.7372°W)
Time: 18:45:31
(UTC+00:00)
Language:

SWISSCUBE - Orbit

View from above orbital plane
View from above orbital plane
View from above satellite
View from above satellite

Ground track
Ground track

The orbit data is extracted from the following two-line orbital elements,

1 35932U 09051B   24146.67009741  .00002159  00000-0  46987-3 0  9992
2 35932  98.4739  29.5304 0008113  36.5809 323.5942 14.59020070779314
Epoch (UTC): 25 May 2024 16:04:56
Eccentricity: 0.0008113
inclination: 98.4739°
perigee height: 690 km
apogee height: 702 km
right ascension of ascending node: 29.5304°
argument of perigee: 36.5809°
revolutions per day: 14.59020070
mean anomaly at epoch: 323.5942°
orbit number at epoch: 77931

The dashed part of the orbit path shows where the satellite is in the earth's shadow,  

DLR